Location: Juillacq
(43.4333°N, 0.1333°W)
Time: 18:52:36
(UTC+00:00)

Daily predictions for brighter satellites

Satellite Brightness Start Highest point End
(mag) Time Altitude Azimuth Time Altitude Azimuth Time Altitude Azimuth
ADEOS 3.7 18:19:11 10° SSE 18:24:23 87° WSW 18:29:39 10° NNW
Cosmos 2285 Rocket 4.0 18:22:36 10° S 18:28:51 68° ESE 18:35:08 10° NNE
KORONAS-FOTON 4.0 18:25:40 10° N 18:29:14 45° ENE 18:32:48 10° SSE
Cosmos 2263 Rocket 4.3 18:25:39 10° NW 18:30:28 31° WSW 18:35:15 10° SSW
Cosmos 1674 2.8 18:28:10 10° N 18:31:39 47° E 18:35:08 10° SSE
Cosmos 1470 Rocket 4.2 18:33:02 10° SSE 18:36:52 32° E 18:40:45 10° NNE
Cosmos 1726 2.7 18:34:13 10° SSE 18:37:09 28° E 18:40:06 10° NNE
JB-3 4.2 18:33:47 10° NNE 18:37:35 83° ESE 18:41:26 10° S
Cosmos 1842 3.3 18:35:05 10° N 18:38:55 83° W 18:42:42 10° S
Cosmos 2084 3.4 18:36:22 10° NNW 18:40:04 52° NE 18:43:52 10° SE
Cosmos 1452 Rocket 3.8 18:36:16 10° N 18:41:22 47° ENE 18:46:26 10° SE
USA 215 3.6 18:37:16 10° ENE 18:43:28 44° SE 18:49:38 10° SSW
Cosmos 494 Rocket 4.0 18:38:25 10° S 18:43:38 71° ESE 18:48:51 10° NNE
Okean 3 4.1 18:43:03 10° N 18:46:47 32° ENE 18:50:29 10° SE
PAYLOAD B 4.3 18:41:48 10° SSE 18:47:17 60° ENE 18:52:46 10° N
Cosmos 1048 Rocket 4.0 18:42:31 10° S 18:47:48 65° ESE 18:53:08 10° NNE
Cosmos 2341 Rocket 4.0 18:45:56 10° N 18:52:11 68° E 18:58:27 10° SSE
ISS -1.6 18:50:10 10° NW 18:52:43 20° N 18:55:16 10° NE
Cosmos 2366 rocket 4.1 18:47:08 10° N 18:53:10 52° ENE 18:59:09 10° SSE
SL-8 Rocket 4.0 18:48:57 10° N 18:55:09 64° E 19:01:22 10° SSE
Iridium 2 3.3 18:51:58 10° N 18:55:25 76° E 18:58:50 10° S
CZ-4B R/B 3.7 18:53:38 10° S 18:57:06 46° W 19:00:30 10° NNW
DMSP B5D1-3 4.4 18:52:34 10° NNE 18:57:40 74° ESE 19:02:44 10° S
CZ-4B DEB 4.3 18:54:09 10° SSE 18:59:37 82° WSW 19:05:06 10° NNW
SL-16 R/B 3.3 18:57:06 10° SW 19:02:33 47° WNW 19:08:02 10° NNE
Cosmos 1844 Rocket 2.7 18:57:13 10° NNW 19:02:48 82° WSW 19:08:22 10° SSE
Cosmos 1805 3.7 19:00:24 10° SSE 19:03:52 36° E 19:07:22 10° NNE
ADEOS Rocket 4.3 19:00:02 14° ESE 19:05:46 33° ENE 19:12:18 10° N
BREEZE M DEB (TANK) 2.7 19:03:58 10° SSW 19:05:46 23° SE 19:05:46 23° SE
Cosmos 1703 Rocket 4.2 19:02:52 10° N 19:06:57 35° ENE 19:09:37 19° SE
Cosmos 2219 Rocket 2.4 19:01:47 10° S 19:07:03 45° ESE 19:12:22 10° NE
SL-14 R/B 3.9 19:05:04 10° N 19:08:41 34° ENE 19:10:26 23° ESE
NOSS 2-3 (E) 3.6 19:06:03 10° S 19:09:31 41° ESE 19:13:18 10° NE
Cosmos 1666 Rocket 4.4 19:05:37 10° SSW 19:09:59 54° W 19:14:23 10° N
In-Cosmos 22 4.4 19:06:14 10° NNW 19:11:39 69° W 19:16:56 10° S
Cosmos 1933 Rocket 3.8 19:11:35 10° SSE 19:15:47 45° E 19:19:59 10° NNE
SL-8 R/B 4.4 19:11:46 10° WNW 19:16:22 46° N 19:19:19 20° ENE
Okean 2 4.2 19:13:05 10° NNE 19:16:36 28° ENE 19:17:05 27° E
USA 186 2.4 19:17:06 32° ENE 19:17:06 32° ENE 19:19:42 10° N
CZ-4C R/B 2.8 19:13:56 10° NNE 19:17:20 63° ESE 19:20:42 10° S
USA 267 3.9 19:13:24 18° E 19:17:51 42° NNE 19:23:56 10° NW
Cosmos 2218 Rocket 3.9 19:12:06 10° N 19:18:17 80° E 19:24:26 10° S
USA 307 4.5 19:17:53 10° N 19:18:35 11° N 19:19:17 10° NNE
NOSS 2-2 (E) 4.1 19:17:45 10° S 19:19:49 25° SSE 19:19:49 25° SSE
CZ-4B R/B 3.0 19:16:06 10° SSE 19:21:22 83° ENE 19:26:42 10° NNW
Feng Yun 1-1 Rocket 4.3 19:18:53 10° SSE 19:24:44 69° ENE 19:30:30 10° N
PSLV R/B 3.7 19:21:00 10° SSE 19:24:47 86° WSW 19:28:41 10° NNW
Okean O Rocket 1.6 19:24:10 20° SSE 19:27:11 64° ENE 19:31:35 10° N
USA 81 4.0 19:21:56 10° S 19:27:11 89° WNW 19:32:29 10° N
Cosmos 2322 Rocket 3.4 19:23:07 10° SW 19:28:26 44° WNW 19:33:48 10° NNE
Landsat 7 3.8 19:24:38 10° S 19:29:20 81° WSW 19:34:05 10° NNW
Milstar 3 Cent rocket 4.1 19:20:32 10° WSW 19:30:21 28° S 19:34:01 19° SE
Landsat 4 3.9 19:26:52 10° S 19:30:24 64° WSW 19:34:01 10° NNW
Okean 1-7 2.9 19:27:53 10° N 19:32:13 85° E 19:35:40 16° S
Meteor 1-21 4.4 19:27:01 10° NNW 19:32:51 80° W 19:38:36 10° S
Cosmos 2278 Rocket 3.5 19:30:36 10° N 19:35:03 23° NE 19:36:01 22° ENE
Lacrosse 5 4.0 19:31:28 10° WNW 19:35:19 21° NNW 19:39:12 10° NE
Cosmos 1340 Rocket 2.8 19:32:02 10° N 19:36:07 86° WSW 19:38:40 22° S
Resurs 01 Rocket 2.2 19:36:15 36° E 19:36:37 37° ENE 19:40:43 10° N
CSL-04 Rocket 3.6 19:34:22 26° SE 19:37:14 60° ENE 19:42:26 10° N
Cosmos 1110 Rocket 4.3 19:33:45 10° NNW 19:38:54 67° WSW 19:43:31 13° S
SJ-6B 3.2 19:38:30 13° S 19:41:59 64° W 19:46:00 10° NNW
Cosmos 1733 4.4 19:41:45 10° SSW 19:45:13 41° WNW 19:48:45 10° N
Cosmos 2181 Rocket 4.4 19:40:27 10° SSW 19:46:51 67° W 19:53:14 10° N
DEBRIS 3.4 19:49:31 10° W 19:51:11 34° SW 19:51:11 34° SW
CZ-4 R/B 2.8 19:48:05 10° SSW 19:51:43 36° W 19:55:19 10° NNW
Okean-O 2.8 19:51:51 49° ENE 19:51:51 49° ENE 19:56:02 10° N
BREEZE-M DEB (TANK) 4.2 19:49:29 10° WNW 19:53:32 33° N 19:53:38 33° N
BREEZE-M DEB (TANK) 3.2 19:51:17 10° NW 19:54:00 59° NNE 19:54:41 51° ENE
Cosmos 1241 Rocket 4.5 19:48:01 10° NNW 19:54:15 63° NE 19:56:08 44° ESE
USA 308 3.5 19:51:05 10° NW 19:54:06 35° NNE 19:54:06 35° NNE
Cosmos 2333 Rocket 3.1 19:49:03 10° SW 19:54:31 50° WNW 20:00:02 10° NNE
Cosmos 1869 Rocket 3.4 19:55:09 66° ESE 19:55:18 66° E 19:59:40 10° NNE
Resurs 1-3 4.2 19:53:46 19° S 19:56:48 56° W 20:01:06 10° NNW
Cosmos 2360 Rocket 3.8 19:54:11 10° WSW 19:59:20 35° NW 20:04:32 10° N
COSMOS 2428 2.6 19:53:56 10° SSW 19:59:32 66° ESE 20:05:10 10° NNE
Cosmos 2322 3.6 19:55:29 10° SSW 20:01:13 86° ESE 20:06:58 10° NNE
Cosmos 2242 Rocket 3.6 19:59:27 10° N 20:03:34 64° NE 20:03:34 64° NE
ATLAS 3B R/B 2.7 20:01:38 10° SSW 20:08:18 61° ESE 20:15:31 10° NE
Cosmos 1302 Rocket 3.9 20:05:18 10° NNW 20:10:35 83° WSW 20:11:41 57° S
MOS 1 4.3 20:12:48 55° ENE 20:12:55 55° ENE 20:18:26 10° N
Cosmos 1992 Rocket 4.2 20:16:20 10° NNW 20:20:55 56° NE 20:20:55 56° NE
Gbstr 26 Del rocket 4.5 20:14:29 10° SSW 20:22:13 56° SE 20:23:01 54° ESE
Cosmos 1934 Rocket 3.9 20:18:51 10° N 20:25:12 66° E 20:25:24 66° E
SPOT 1/Viking Rocket 4.2 20:23:44 33° SSW 20:25:43 52° W 20:30:46 10° NNW
Ariane Rocket 4.5 20:28:25 25° NNE 20:28:25 25° NNE 20:31:01 10° N
USA 215 3.6 20:20:10 10° NE 20:26:36 61° NNW 20:33:01 10° WSW
ISS -1.1 20:27:20 10° NW 20:28:37 18° NNW 20:28:37 18° NNW
COSMOS 2455 2.8 20:25:42 10° NNW 20:31:38 69° NE 20:31:38 69° NE
Terra 4.0 20:41:29 17° NNE 20:41:29 17° NNE 20:42:45 10° N
ADEOS Rocket 3.9 20:46:59 32° SSW 20:50:47 60° W 20:58:20 10° NNW
Cosmos 2219 Rocket 4.0 20:46:22 10° WSW 20:51:10 29° NW 20:56:01 10° N
USA 267 3.2 21:00:46 76° WSW 21:00:46 76° WSW 21:07:10 10° NW
Cosmos 1943 Rocket 3.4 20:57:20 10° NNW 21:00:47 33° N 21:00:47 33° N
Okean O Rocket 4.5 21:01:59 10° WSW 21:03:54 13° W 21:05:51 10° WNW
Resurs 01 Rocket 3.9 21:13:47 21° W 21:13:47 21° W 21:16:37 10° NW
Cosmos 2278 Rocket 3.2 21:13:59 10° NNW 21:17:52 43° NW 21:17:52 43° NW
Lacrosse 5 4.1 21:16:24 10° NW 21:19:29 18° N 21:19:29 18° N
Cosmos 2369 Rocket 4.4 21:51:06 10° N 21:52:42 18° N 21:52:42 18° N
ATLAS 3B R/B 4.0 21:53:04 10° WSW 21:59:29 37° NW 22:06:19 10° NNE
CENTAUR R/B 4.3 22:07:19 10° NNW 22:13:52 33° NNE 22:13:52 33° NNE
